Location: Croissy-Beaubourg
(48.8283°N, 2.6696°E)
Time: 21:51:13
(UTC+00:00)

Cosmos 2082 - Pass Details

Date: 26 August 2022
Orbit: 832 x 856 km, 71.0° (Epoch: 28 September)

Event Time Altitude Azimuth Distance (km) Brightness Sun altitude
Rises 23:27:09 0° 335° (NNW) 3,411 7.9 -30.8°
Reaches altitude 10° 23:30:22 10° 354° (N) 2,478 7.0 -30.9°
Maximum altitude 23:34:20 19° 38° (NE) 1,920 6.0 -30.9°
Drops below altitude 10° 23:38:19 10° 83° (E) 2,482 6.1 -31.0°
Enters shadow 23:38:20 10° 83° (E) 2,488 6.2 -31.0°
